Track QB50P1 (EO-79) now! 10-day predictions QB50P1 (EO-79) is classified as:
1 40025U 14033R 26222.77211244 .00004448 00000-0 21589-3 0 9992 2 40025 98.0975 237.7792 0009785 48.1111 312.0955 15.19029052661319